sat.trackr.live / text

‹ back to catalog

STARLINK-33649

NORAD 63416 · 2025-065T

PAYLOAD ACTIVE UNKNOWN

§ Identity

Operator
Country
US
Launch date
2025-03-31
Launch site
AFETR
Launch vehicle
Mass (kg)
RCS (m²)

Purposes: comms

External: N2YO · Heavens-Above · Gunter

§ Orbital elements

Epoch: 2026-05-25T00:08:40.737120Z

Period
94.27 min
Inclination
43.0031°
Eccentricity
0.0001081
Mean motion
15.27593888 rev/d
Perigee alt
482.3 km
Apogee alt
483.7 km
Semi-major
6,861.1 km
B*
6.3015e-4
RAAN
35.8406°
Arg perigee
267.9834°
Mean anomaly
92.0894°
Rev number
6,451

§ Raw data

STARLINK-336491 63416U 25065T   26145.00602705  .00017126  00000+0  63015-3 0  99902 63416  43.0031  35.8406 0001081 267.9834  92.0894 15.27593888 64512

JSON: /api/v1/satellites/63416 · /tle

For live sub-satellite position, see the globe view (requires WebGL).

§ Visibility from observer

Set your observer location to see the next 7 days of passes ≥ 10°. The values pass through the URL so the page stays shareable.

No JS? Fill the form by hand. The geolocation button needs JavaScript.